Weather in Makhnyovo

Russia / Sverdlovsk Oblast     58°26′54″N   61°42′34″E
temp.,
°C
wind,
m/s
gust,
m/s
humid.,
%
clouds,
%
prec.,
mm/h
press.,
hPa
HPBL,
m
21 january, fri
fri2123:00−10ssw3109580 0.3 1018222
02:00−9ssw31092100 0.0 1018360
05:00−8ssw41193100 0.1 1018530
08:00−8sw41287100 0.1 1018502
11:00−8sw4128698 0.1 1019512
14:00−7sw4128397 0.0 1019543
17:00−7sw4118466 0.0 1021495
20:00−9sw4128952 0.0 1022401
22 january, sat
sat2223:00−10wsw4129054 0.0 1023344
02:00−11wsw411915 0.0 1024286
05:00−12sw31093100 0.0 1025218
08:00−12sw31094100 0.0 1026191
11:00−11sw3992100 0.0 1027213
14:00−7sw37886 0.0 1027276
17:00−11ssw249711 0.0 102954
20:00−12sw269752 0.0 103089
23 january, sun
sun2323:00−13sw279685 0.0 103188
02:00−15sw2597100 0.0 103260
05:00−15ssw249774 0.0 103356
08:00−16sw239788 0.0 103442
11:00−11ssw239125 0.0 103566
14:00−6ssw2388100 0.0 1035132
17:00−10s2297100 0.0 103732
20:00−12ssw2397100 0.0 103758
24 january, mon
mon2423:00−12ssw2394100 0.0 103858
02:00−11s2492100 0.0 103871
05:00−12ssw2489100 0.0 103877
08:00−10s2589100 0.0 103894
11:00−8ssw2489100 0.0 1037107
14:00−5wsw2787100 0.0 1036325
17:00−5sw3896100 1.0 1036414
20:00−6wsw3896100 1.1 1035429
25 january, tue
tue2523:00−6wsw399595 1.9 1033481
02:00−11wsw279614 0.0 1033128
05:00−13wsw28965 0.0 1032133
08:00−14wsw28965 0.0 1031136
11:00−10wsw3119141 0.0 1029358
14:00−7wsw4108712 0.0 1028467
17:00−8wsw398947 0.0 1027295
20:00−7wsw41188100 0.0 1026426